Покровск

Украина / Донецкая область     48˚16′49″N   37˚10′32″E
темп.,
°C
ветер,
м/с
пор.,
м/с
влажн.,
%
обл.,
%
осадки,
мм/ч
давл.,
гПа
погр.,
м
16 января, сб
сб1623:00−4˚з6995100 1.1 1010634
02:00−9˚зсз61090100 1.3 1011517
05:00−11˚з5109076 0.0 1012505
08:00−12˚зюз599281 0.0 1015466
11:00−10˚з588595 0.0 1016675
14:00−9˚зюз588397 0.0 1015808
17:00−10˚юз359299 0.0 1016140
20:00−10˚зюз239592 0.0 101690
17 января, вс
вс1723:00−10˚юз229290 0.0 101632
02:00−10˚ссз119189 0.0 101521
05:00−11˚св239596 0.0 101586
08:00−11˚св469498 0.0 1014220
11:00−9˚св4590100 0.0 1015289
14:00−9˚св5788100 0.0 1014413
17:00−10˚ссв5790100 0.0 1014362
20:00−11˚ссв5793100 0.3 1015318
18 января, пн
пн1823:00−11˚ссв4793100 0.6 1015320
02:00−12˚ссв4694100 1.1 1015312
05:00−12˚ссв3593100 0.3 1015283
08:00−12˚св3593100 0.4 1017244
11:00−11˚ссв228884 0.0 1017316
14:00−10˚с118692 0.1 1017355
17:00−11˚сз1196100 0.2 101826
20:00−12˚зсз239696 0.3 101872
19 января, вт
вт1923:00−13˚сз2396100 0.1 1019108
02:00−15˚зсз2397100 0.1 101956
05:00−16˚з349896 0.0 1019111
08:00−17˚зсз359788 0.1 1020169
11:00−14˚зсз348876 0.0 1020350
14:00−13˚зсз578988 0.1 1019573
17:00−15˚з3795100 0.0 1021273
20:00−16˚з379797 0.1 1022197
20 января, ср
ср2023:00−16˚з359889 0.0 1023130
02:00−17˚з359784 0.1 1024106
05:00−17˚з349743 0.0 102488
08:00−16˚з239651 0.0 102652
11:00−12˚зюз238941 0.0 1026252
14:00−10˚юз239066 0.0 1026287
17:00−13˚ююз339548 0.0 102732
20:00−13˚ю339324 0.0 102840